| time (UTC) | temp C | wind direction | speed KPH | gust KPH | rain 1hr cm | rain 24hr cm | rain mn cm | humidity % | barometer mb |
| 20260502190043 | 22 | 25 | 6.4 | 19.3 | 0.00 | 3.73 | 0.05 | 52 | 1018.6 |
| 20260502184553 | 21 | 347 | 4.8 | 20.9 | 0.00 | 4.65 | 0.05 | 55 | 1018.6 |
| 20260502183056 | 21 | 67 | 11.3 | 32.2 | 0.00 | 4.65 | 0.05 | 52 | 1018.8 |
| 20260502181545 | 21 | 325 | 8.0 | 25.7 | 0.00 | 4.65 | 0.05 | 54 | 1018.9 |
| 20260502163050 | 20 | 307 | 9.7 | 20.9 | 0.00 | 4.90 | 0.05 | 68 | 1019.6 |
| 20260502161544 | 19 | 63 | 6.4 | 19.3 | 0.00 | 4.90 | 0.05 | 74 | 1019.6 |
| 20260502151556 | 17 | 310 | 4.8 | 16.1 | 0.00 | 5.05 | 0.05 | 82 | 1019.4 |
| 20260502123045 | 11 | 165 | 3.2 | 9.7 | 0.00 | 5.89 | 0.05 | 99 | 1017.6 |
| 20260502121542 | 11 | 298 | 3.2 | 12.9 | 0.00 | 5.89 | 0.05 | 98 | 1017.3 |
| 20260502114545 | 10 | 221 | 1.6 | 6.4 | 0.00 | 6.32 | 0.05 | 98 | 1017.0 |
| 20260502113048 | 10 | 338 | 1.6 | 4.8 | 0.00 | 6.32 | 0.05 | 98 | 1016.7 |
| 20260502111540 | 10 | 300 | 1.6 | 4.8 | 0.00 | 6.32 | 0.05 | 98 | 1016.8 |
| 20260502110044 | 10 | 111 | 1.6 | 6.4 | 0.00 | 6.32 | 0.05 | 98 | 1016.6 |
| 20260502104549 | 10 | 265 | 1.6 | 6.4 | 0.00 | 6.50 | 0.05 | 98 | 1016.4 |
| 20260502103041 | 10 | 340 | 1.6 | 8.0 | 0.00 | 6.50 | 0.05 | 98 | 1016.1 |
| 20260502101609 | 10 | 26 | 3.2 | 9.7 | 0.00 | 6.50 | 0.05 | 98 | 1015.9 |
| 20260502070053 | 10 | 25 | 3.2 | 16.1 | 0.00 | 6.91 | 0.05 | 99 | 1015.8 |
| 20260502064539 | 10 | 17 | 3.2 | 17.7 | 0.03 | 6.91 | 0.05 | 99 | 1015.9 |
| 20260502063053 | 10 | 41 | 3.2 | 14.5 | 0.03 | 6.91 | 0.05 | 99 | 1016.1 |
| 20260502061543 | 10 | 309 | 3.2 | 12.9 | 0.05 | 6.91 | 0.05 | 99 | 1016.2 |
| 20260502060041 | 11 | 23 | 3.2 | 19.3 | 0.05 | 6.91 | 0.05 | 99 | 1016.1 |
| 20260502054541 | 11 | 319 | 6.4 | 20.9 | 0.10 | 6.88 | 0.03 | 99 | 1015.5 |
| 20260502053037 | 11 | 36 | 3.2 | 14.5 | 0.13 | 6.88 | 0.03 | 99 | 1015.6 |
| 20260502051603 | 11 | 19 | 3.2 | 11.3 | 0.10 | 6.86 | 0.00 | 99 | 1015.7 |
| 20260502050045 | 11 | 334 | 4.8 | 19.3 | 0.13 | 6.86 | 0.00 | 99 | 1015.5 |
| 20260502044545 | 11 | 265 | 3.2 | 16.1 | 0.05 | 6.78 | 6.78 | 99 | 1014.6 |
| 20260502043039 | 11 | 59 | 3.2 | 17.7 | 0.05 | 6.76 | 6.76 | 99 | 1014.9 |
| 20260502041540 | 12 | 55 | 4.8 | 14.5 | 0.15 | 6.76 | 6.76 | 99 | 1015.1 |
| 20260502040055 | 12 | 90 | 4.8 | 16.1 | 0.20 | 6.73 | 6.73 | 99 | 1014.9 |
| 20260502034544 | 12 | 342 | 4.8 | 12.9 | 0.23 | 6.73 | 6.73 | 99 | 1014.6 |
| 20260502033048 | 12 | 46 | 3.2 | 20.9 | 0.23 | 6.71 | 6.71 | 99 | 1014.9 |
| 20260502031542 | 12 | 15 | 4.8 | 14.5 | 0.15 | 6.60 | 6.60 | 99 | 1015.1 |
| 20260502030044 | 12 | 279 | 6.4 | 19.3 | 0.13 | 6.53 | 6.53 | 99 | 1014.8 |
| 20260502024543 | 12 | 61 | 3.2 | 12.9 | 0.13 | 6.50 | 6.50 | 99 | 1013.9 |
| 20260502023055 | 12 | 302 | 6.4 | 16.1 | 0.10 | 6.48 | 6.48 | 99 | 1013.3 |
| 20260502021542 | 12 | 9 | 4.8 | 16.1 | 0.08 | 6.45 | 6.45 | 99 | 1013.5 |
| 20260502020048 | 12 | 13 | 4.8 | 17.7 | 0.03 | 6.40 | 6.40 | 99 | 1013.2 |
| 20260502014538 | 12 | 341 | 3.2 | 19.3 | 0.00 | 6.38 | 6.38 | 99 | 1013.0 |
| 20260502013058 | 12 | 34 | 4.8 | 19.3 | 0.00 | 6.38 | 6.38 | 99 | 1012.6 |
| 20260502011547 | 12 | 130 | 4.8 | 17.7 | 0.00 | 6.38 | 6.38 | 99 | 1012.0 |
| 20260502010044 | 12 | 288 | 6.4 | 22.5 | 0.03 | 6.38 | 6.38 | 99 | 1012.0 |
| 20260502004546 | 12 | 341 | 6.4 | 19.3 | 0.13 | 6.38 | 6.38 | 99 | 1011.6 |
| 20260502003039 | 12 | 327 | 4.8 | 20.9 | 0.20 | 6.38 | 6.38 | 99 | 1011.6 |
| 20260502001603 | 13 | 325 | 6.4 | 20.9 | 0.33 | 6.38 | 6.38 | 99 | 1011.3 |
| 20260502000044 | 13 | 309 | 4.8 | 17.7 | 0.53 | 6.35 | 6.35 | 99 | 1011.7 |
| 20260501234550 | 13 | 347 | 3.2 | 12.9 | 0.64 | 6.22 | 6.22 | 99 | 1011.7 |
| 20260501233053 | 13 | 30 | 3.2 | 14.5 | 0.89 | 6.17 | 6.17 | 99 | 1011.0 |
| 20260501231542 | 13 | 72 | 3.2 | 9.7 | 1.02 | 5.99 | 5.99 | 99 | 1012.5 |
| 20260501230039 | 13 | 9 | 3.2 | 16.1 | 1.09 | 5.82 | 5.82 | 99 | 1013.1 |
| 20260501224538 | 13 | 325 | 4.8 | 9.7 | 1.02 | 5.56 | 5.56 | 99 | 1012.7 |
| 20260501223044 | 13 | 309 | 1.6 | 6.4 | 0.89 | 5.26 | 5.26 | 99 | 1012.9 |
| 20260501221543 | 13 | 51 | 3.2 | 9.7 | 0.84 | 4.98 | 4.98 | 99 | 1012.7 |
| 20260501220114 | 13 | 49 | 4.8 | 12.9 | 0.89 | 4.72 | 4.72 | 99 | 1011.7 |
| 20260501214541 | 14 | 74 | 3.2 | 14.5 | 0.91 | 4.57 | 4.55 | 99 | 1011.6 |
| 20260501213039 | 14 | 119 | 1.6 | 6.4 | 0.86 | 4.39 | 4.37 | 99 | 1011.7 |
| 20260501211545 | 14 | 0 | 1.6 | 14.5 | 0.74 | 4.17 | 4.14 | 99 | 1011.0 |
| 20260501204548 | 14 | 310 | 3.2 | 16.1 | 0.28 | 3.66 | 3.63 | 99 | 1010.0 |
| 20260501203043 | 14 | 344 | 4.8 | 20.9 | 0.18 | 3.53 | 3.51 | 99 | 1010.1 |
| 20260501201542 | 14 | 54 | 6.4 | 19.3 | 0.13 | 3.43 | 3.40 | 99 | 1011.1 |
| 20260501200037 | 14 | 40 | 4.8 | 16.1 | 0.18 | 3.40 | 3.38 | 99 | 1010.9 |
| 20260501194539 | 14 | 38 | 6.4 | 17.7 | 0.28 | 3.38 | 3.35 | 99 | 1010.9 |
| 20260501193045 | 14 | 76 | 4.8 | 17.7 | 0.43 | 3.35 | 3.33 | 99 | 1011.6 |
| 20260501191543 | 14 | 9 | 6.4 | 16.1 | 0.61 | 3.30 | 3.28 | 99 | 1011.4 |